Location: Jesenik
(50.2330°N, 17.2000°E)
Time: 03:06:09
(UTC+01:00)

ISS - Visible Passes

Search period start: 06 December 2023 00:00
Search period end: 16 December 2023 00:00
Orbit: 415 x 417 km, 51.6° (Epoch: 05 December)

Date Brightness Start Highest point End Pass type
(mag) Time Alt. Az. Time Alt. Az. Time Alt. Az.
06 Dec -0.5 17:30:32 10° WSW 17:31:57 12° SW 17:33:22 10° SSW visible
07 Dec -0.7 16:41:13 10° W 16:43:37 18° SW 16:46:01 10° S visible
15 Dec -0.6 07:00:09 10° S 07:02:30 18° SE 07:04:52 10° E visible
